Terminal Aerodrome Forecast
Issued by NWS Upton, NY

Home | Current Version | Previous Version | Text Only | Print | Product List | Glossary On
Versions: 1 2 3 4 5 6 7 8 9 10 11 12 13 14 15 16 17 18 19 20 21 22 23 24 25 26 27 28 29 30 31 32 33 34
000
FTUS41 KOKX 252339
TAFISP
TAF
KISP 252339Z 2600/2624 07007KT 1/2SM -DZ FG OVC003
     FM260300 VRB05KT 2SM +SHRA BR VCTS SCT006 OVC015CB
     FM260700 VRB05KT 2SM SHRA BR OVC004
     FM261100 30008KT 6SM -SHRA SCT007 BKN012
     FM261500 29012KT P6SM SCT015 BKN025
     FM261700 29014G24KT P6SM SCT025 BKN035=

USA.gov is the U.S. government's official web portal to all federal, state and local government web resources and services.